Location: Wertingen
(48.5631°N, 10.6815°E)
Time: 06:09:36
(UTC+00:00)

Daily predictions for brighter satellites

Satellite Brightness Start Highest point End
(mag) Time Altitude Azimuth Time Altitude Azimuth Time Altitude Azimuth
BREEZE M DEB (TANK) 4.2 15:35:55 10° WNW 15:54:36 85° SSW 15:59:02 10° ESE
Cosmos 724 4.4 15:49:55 10° NNW 15:55:58 61° NE 16:01:48 10° SE
USA 215 3.8 15:52:03 10° ENE 15:58:13 45° N 16:04:23 10° W
Cosmos 1486 Rocket 4.4 15:54:29 10° S 15:59:24 44° ESE 16:04:22 10° NE
Cosmos 1626 Rocket 3.5 15:55:25 10° N 15:59:44 63° ENE 16:04:00 10° SSE
Iridium 51 3.6 15:58:20 10° S 16:01:27 82° E 16:04:40 10° N
SL-16 R/B 2.6 15:56:36 10° NNE 16:02:51 70° ESE 16:09:01 10° S
Cosmos 773 Rocket 4.0 15:58:07 10° NNW 16:03:21 74° ENE 16:08:35 10° SSE
CZ-2D R/B 4.0 16:01:32 10° ESE 16:03:56 20° ENE 16:06:22 10° NNE
Cosmos 1867 3.9 15:59:11 10° NNW 16:04:25 45° NE 16:09:38 10° ESE
Gbstr 26 Del rocket 4.5 16:02:31 10° S 16:05:42 21° SE 16:08:40 10° E
Meteor 1-20 Rocket 4.4 16:04:30 10° N 16:09:46 45° ENE 16:14:59 10° SE
SAR-Lupe-4 4.4 16:07:03 10° SE 16:10:09 29° ENE 16:13:15 10° N
Cosmos 1656 3.7 16:05:06 10° SSW 16:10:42 74° ESE 16:16:23 10° NNE
Cosmos 1782 2.5 16:13:33 10° S 16:17:07 71° E 16:20:43 10° NNE
Cosmos 1544 Rocket 3.5 16:13:28 10° S 16:17:50 74° E 16:22:17 10° NNE
Cosmos 1743 2.3 16:14:45 10° N 16:17:58 58° ENE 16:21:09 10° SSE
ARIANE 5 R/B 2.7 16:15:48 10° SE 16:20:41 50° ENE 16:25:38 10° N
Cosmos 2297 Rocket 2.2 16:19:23 10° NNW 16:25:06 89° ENE 16:30:47 10° SSE
Cosmos 2208 Rocket 4.3 16:23:36 10° NNW 16:28:45 71° WSW 16:33:54 10° SSE
MOS 1 Rocket 3.7 16:26:31 10° SE 16:31:11 46° ENE 16:36:08 10° N
Okean 1-7 Rocket 3.7 16:27:18 10° N 16:31:36 50° ENE 16:35:50 10° SSE
IRS-P3 4.4 16:26:37 10° SE 16:31:40 46° ENE 16:36:43 10° N
NOSS 3-2 (A) 3.5 16:28:36 10° SW 16:33:40 64° NW 16:39:35 11° NE
SPOT 1/Viking Rocket 4.1 16:29:29 10° SE 16:34:07 34° ENE 16:38:47 10° N
NOSS 3-2 (C) 3.2 16:29:26 10° SSW 16:34:22 62° SE 16:39:28 14° NE
NOSS 2-2 (D) 3.5 16:34:05 10° WSW 16:37:15 45° NW 16:39:34 14° NNE
Cosmos 1900 4.3 16:33:19 10° NW 16:38:24 74° NE 16:43:21 10° SE
Cosmos 1602 Rocket 3.5 16:34:00 10° N 16:38:25 85° ENE 16:42:46 10° S
Cosmos 2228 4.4 16:35:25 10° SW 16:39:23 38° WNW 16:43:23 10° N
Cosmos 2219 4.0 16:38:19 10° NNW 16:43:17 29° NE 16:47:21 14° E
Cosmos 1655 Rocket 4.2 16:38:14 10° N 16:44:12 45° ENE 16:50:07 10° SE
Cosmos 783 Rocket 4.4 16:41:10 10° NNW 16:46:31 80° ENE 16:51:48 10° SSE
YAOGAN 1 3.4 16:43:28 10° ESE 16:47:00 26° ENE 16:50:33 10° N
Cosmos 2279 Rocket 4.4 16:41:29 10° SSW 16:47:37 66° WNW 16:53:51 10° N
Meteor 1-25 Rocket 4.2 16:41:58 10° N 16:47:48 71° ENE 16:53:32 10° SSE
Lacrosse 4 Rocket 3.7 16:45:17 10° WNW 16:47:50 16° NW 16:50:22 10° N
Cosmos 1980 Rocket 3.2 16:46:14 10° SSE 16:50:51 27° ESE 16:53:02 21° ENE
Meteor 1-5 Rocket 4.2 16:46:22 10° N 16:51:34 50° ENE 16:56:51 10° SSE
NOSS 7 (H) 3.9 16:49:08 10° NW 16:52:03 75° NE 16:55:14 10° SE
Cosmos 1844 Rocket 4.3 16:50:29 10° N 16:53:47 15° NE 16:54:07 15° NE
Meteor 1-28 Rocket 4.3 16:50:41 10° N 16:53:49 37° WNW 16:56:56 10° SW
NOSS 2-2 (E) 3.8 16:51:45 10° WSW 16:54:48 38° NW 16:56:34 19° NNE
Cosmos-2242 4.4 16:52:20 10° SE 16:54:29 19° ESE 16:54:29 19° ESE
Cosmos 1538 Rocket 4.4 16:50:30 10° NNW 16:55:29 40° ENE 17:00:30 10° SE
GEOS 3 Rocket 3.8 16:54:13 15° NE 16:58:42 78° NW 17:04:04 10° SW
Thor Agena Rocket 4.5 16:54:45 10° S 16:59:49 51° W 17:04:51 10° NNW
Cosmos 2263 Rocket 2.4 16:56:15 10° NNW 17:01:46 49° NE 17:07:16 10° SE
Cosmos 1953 Rocket 3.8 16:57:29 10° N 17:01:47 45° ENE 17:06:03 10° SSE
UNK 4.1 16:59:09 10° N 17:03:42 65° WNW 17:08:13 10° SSW
Cosmos 1503 Rocket 4.1 16:59:51 10° SSW 17:05:06 81° WNW 17:09:56 12° NNE
Cosmos 2151 3.9 17:02:04 10° NNW 17:06:06 50° W 17:10:07 10° S
SMAP 4.0 17:02:10 10° S 17:06:41 51° W 17:11:14 10° NNW
Landsat 7 4.4 17:07:14 10° S 17:11:48 58° W 17:16:26 10° NNW
Cosmos 1825 Rocket 3.5 17:07:32 10° N 17:11:54 86° W 17:16:13 10° S
Cosmos 1933 3.2 17:08:55 10° SSW 17:12:45 80° W 17:16:06 13° N
Lacrosse 5 rocket 2.6 17:10:02 10° WNW 17:13:04 23° N 17:13:51 21° N
Cosmos 1354 Rocket 3.9 17:08:45 10° SSW 17:14:01 86° ESE 17:18:06 17° NNE
Cosmos 2227 Rocket 2.2 17:10:44 10° NNW 17:16:25 84° WSW 17:22:04 10° SSE
CZ-4C R/B 3.4 17:11:44 10° NW 17:18:43 66° SW 17:27:19 10° SSE
CZ-4 R/B 4.2 17:15:17 10° SSE 17:19:12 80° ENE 17:23:11 10° N
Spot 4 Rocket 4.0 17:14:41 10° SSE 17:19:41 59° ENE 17:24:43 10° N
CENTAUR R/B 3.9 17:14:16 10° W 17:19:50 31° NNW 17:24:42 17° NNE
ATLAS CENTAUR R/B 4.4 17:23:00 10° W 17:23:49 11° WSW 17:24:38 10° SW
Cosmos 1461 3.4 17:21:07 10° WSW 17:24:55 50° NW 17:26:27 31° NNE
NOSS 2-3 (C) 3.4 17:21:44 10° SSW 17:24:49 45° SE 17:24:49 45° SE
Cosmos 1898 Rocket 4.0 17:22:10 10° SSE 17:26:39 35° ESE 17:26:39 35° ESE
Cosmos 1697 Rocket 2.7 17:25:48 10° SSW 17:31:23 78° WNW 17:35:02 23° NNE
Cosmos 2058 Rocket 3.1 17:28:19 10° S 17:32:39 53° E 17:32:46 53° E
USA 238 DEB 3.6 17:28:49 10° SSW 17:34:44 55° ESE 17:36:53 39° ENE
USA 238 3.6 17:28:56 10° SSW 17:34:51 55° ESE 17:36:59 39° ENE
Cosmos 1076 Rocket 3.6 17:31:18 10° NNW 17:35:36 76° W 17:39:54 10° S
Nadezhda 2 Rocket 4.5 17:30:01 10° N 17:36:02 54° ENE 17:41:59 10° SSE
CZ-2D R/B 3.4 17:31:56 10° SSE 17:36:09 88° WSW 17:40:19 10° NNW
NOAA 15 4.5 17:33:45 10° SSE 17:39:02 87° ENE 17:44:21 10° NNW
PSLV R/B 3.2 17:39:37 72° ENE 17:39:37 72° ENE 17:43:38 10° N
Meteor 2-2 Rocket 4.3 17:34:18 10° S 17:39:47 54° E 17:41:15 42° NE
USA 215 3.7 17:38:19 35° ENE 17:40:31 47° N 17:46:44 10° WNW
Meteor 2-10 4.0 17:36:03 10° N 17:41:26 81° ENE 17:46:58 10° SSE
SL-19 R/B 4.1 17:38:14 10° SSE 17:43:36 80° ENE 17:49:17 10° NNW
COSMO-SKYMED 1 2.5 17:44:14 63° SE 17:44:14 63° SE 17:47:53 10° S
Cosmos 372 Rocket 3.9 17:39:22 10° S 17:44:25 60° ESE 17:44:54 57° E
SL-16 R/B 4.4 17:40:55 10° N 17:45:53 26° NW 17:50:52 10° WSW
Cosmos 1553 Rocket 4.0 17:40:10 10° SSE 17:46:07 54° E 17:48:27 35° NE
IRAS Rocket 4.1 17:41:22 10° SSE 17:46:51 83° ENE 17:52:21 10° NNW
Cosmos 1937 Rocket 4.5 17:42:30 10° S 17:45:34 30° SE 17:45:34 30° SE
OceanSat 1 rocket 4.4 17:46:16 10° SSE 17:51:01 83° ENE 17:55:45 10° NNW
Gbstr 26 Del rocket 2.9 17:47:40 10° WSW 17:51:09 67° WSW 17:51:09 67° WSW
Aureole 1 Rocket 3.2 17:48:35 10° SSW 17:52:58 78° ESE 17:53:30 69° NE
NOSS 2-3 (E) 3.6 17:51:48 10° SW 17:54:56 60° W 17:54:56 60° W
Resurs 1-3 3.8 17:52:10 10° S 17:56:26 69° WSW 18:00:45 10° NNW
NOSS 2-3 (D) 3.6 17:53:03 10° SW 17:56:08 58° WSW 17:56:08 58° WSW
Cosmos 2082 3.5 17:57:22 10° NNW 18:03:06 75° ENE 18:03:40 69° ESE
NOAA 6 4.0 18:00:37 10° SSE 18:05:43 83° WSW 18:10:51 10° NNW
USA 81 4.4 18:00:45 10° NNW 18:05:57 63° W 18:11:08 10° S
Cosmos 1244 Rocket 4.5 18:00:53 10° N 18:07:12 84° W 18:13:24 10° S
Meteor 1-26 Rocket 4.0 18:05:36 10° SSW 18:11:01 86° W 18:11:51 65° N
YAOGAN 1 4.0 18:18:48 10° SSW 18:22:43 36° W 18:26:41 10° NNW
NOSS 3-2 (C) 4.4 18:20:39 10° W 18:25:35 35° NNW 18:26:53 32° N
Cosmos 2219 3.6 18:22:10 10° NNW 18:27:49 62° WSW 18:29:21 45° SSW
Cosmos 1386 Rocket 4.5 18:23:30 10° N 18:28:45 68° N 18:28:45 68° N
Cosmos 1980 Rocket 2.6 18:28:55 10° SW 18:34:28 57° WNW 18:34:49 56° NW
Cosmos 1844 Rocket 4.2 18:33:19 10° NNW 18:35:46 26° NNW 18:35:46 26° NNW
BREEZE-M DEB (TANK) 4.2 18:32:55 10° SW 18:37:39 40° SSW 18:37:39 40° SSW
Cosmos 2369 4.5 18:39:17 10° SSW 18:43:15 46° SW 18:43:15 46° SW
Cosmos 2263 Rocket 3.8 18:40:31 10° NW 18:45:28 31° WSW 18:50:24 10° SSW
CENTAUR R/B 4.3 19:06:53 10° NW 19:11:48 26° N 19:11:48 26° N
USA 215 4.2 19:25:40 42° NW 19:25:40 42° NW 19:29:45 10° NW
